Weather History for KLUK - July, 2013

Change the Weather History Date:

Saturday, July 20, 2013

  Actual Average (KCVG) Record (KCVG)
Temperature  
Mean Temperature 81 °F 76 °F  
Max Temperature 91 °F 86 °F 105 °F (1934)
Min Temperature 72 °F 66 °F 50 °F (1947)
Degree Days  
Heating Degree Days 0 0  
Month to date heating degree days 0  
Since 1 June heating degree days 15  
Since 1 July heating degree days 0  
Cooling Degree Days 16 11  
Month to date cooling degree days 218  
Year to date cooling degree days 538  
Since 1 June cooling degree days 444  
Growing Degree Days 31 (Base 50)    
Moisture  
Dew Point 71 °F    
Average Humidity 80    
Maximum Humidity 97    
Minimum Humidity 57    
Precipitation  
Precipitation 0.01 in 0.12 in 3.77 in (1925)
Month to date precipitation 2.40  
Year to date precipitation 25.02  
Snow  
Snow 0.00 in 0.00 in 0.00 in ()
Month to date snowfall 0.0  
Since 1 June snowfall 0.0  
Since 1 July snowfall 0.0  
Snow Depth -    
Sea Level Pressure  
Sea Level Pressure 29.90 in    
Wind  
Wind Speed 7 mph (SW)    
Max Wind Speed 28 mph    
Max Gust Speed 40 mph    
Visibility 9 miles    
Events Rain , Thunderstorm    
T = Trace of Precipitation, MM = Missing Value Source: NWS Daily Summary

Daily Weather History Graph

Daily Weather History Graph

Search for Another Location

Airport or City:

Trip Planner

Search our weather history database for the weather conditions in past years. The results will help you decide how hot, cold, wet, or windy it might be!

Date:

Astronomy

Jul. 20, 2013 Rise Set
Actual Time 6:28 AM EDT 8:59 PM EDT
Civil Twilight 5:57 AM EDT 9:30 PM EDT
Nautical Twilight 5:18 AM EDT 10:08 PM EDT
Astronomical Twilight 4:36 AM EDT 10:51 PM EDT
Moon 7:02 PM EDT (7/20) 4:07 AM EDT (7/20)
Length of Visible Light 15h 33m
Length of Day
14h 31m
Waxing Gibbous, 93% of the Moon is Illuminated
Jul 20
Waxing Gibbous
Jul 22
Full
Jul 29
Last Quarter
Aug 6
New
Aug 14
First Quarter

Hourly Weather History & Observations

Time (EDT) Temp. Heat Index Dew Point Humidity Pressure Visibility Wind Dir Wind Speed Gust Speed Precip Events Conditions
12:53 AM 75.9 °F - 73.9 °F 94% 29.92 in 6.0 mi SW 4.6 mph - N/A   Clear
1:53 AM 73.9 °F - 72.0 °F 93% 29.93 in 7.0 mi SSW 5.8 mph - N/A   Clear
2:53 AM 73.9 °F - 71.1 °F 91% 29.91 in 9.0 mi SSW 5.8 mph - N/A   Clear
3:53 AM 75.0 °F - 71.1 °F 87% 29.90 in 10.0 mi SSW 6.9 mph - N/A   Clear
4:53 AM 75.0 °F - 71.1 °F 87% 29.88 in 10.0 mi SW 8.1 mph - N/A   Clear
5:53 AM 73.0 °F - 70.0 °F 90% 29.88 in 9.0 mi SSW 6.9 mph - N/A   Clear
6:53 AM 73.9 °F - 71.1 °F 91% 29.90 in 8.0 mi Variable 3.5 mph - N/A   Clear
7:53 AM 75.9 °F - 72.0 °F 87% 29.92 in 9.0 mi South 4.6 mph - N/A   Clear
8:53 AM 80.1 °F 83.8 °F 72.0 °F 76% 29.92 in 10.0 mi SW 6.9 mph - N/A   Clear
9:53 AM 82.9 °F 88.0 °F 72.0 °F 69% 29.91 in 10.0 mi WSW 11.5 mph 18.4 mph N/A   Clear
10:53 AM 84.9 °F 91.4 °F 73.0 °F 67% 29.91 in 10.0 mi WSW 12.7 mph 21.9 mph N/A   Clear
11:53 AM 84.9 °F 91.4 °F 73.0 °F 67% 29.91 in 10.0 mi WSW 12.7 mph - N/A   Mostly Cloudy
12:53 PM 87.1 °F 94.5 °F 73.0 °F 63% 29.91 in 10.0 mi SW 11.5 mph - N/A   Scattered Clouds
1:53 PM 88.0 °F 95.6 °F 73.0 °F 61% 29.88 in 10.0 mi West 12.7 mph - N/A   Scattered Clouds
2:53 PM 90.0 °F 97.9 °F 73.0 °F 57% 29.86 in 10.0 mi SSW 16.1 mph 21.9 mph N/A   Scattered Clouds
3:53 PM 89.1 °F 96.0 °F 72.0 °F 57% 29.85 in 10.0 mi SW 13.8 mph 20.7 mph N/A   Scattered Clouds
4:32 PM 80.6 °F 82.7 °F 66.2 °F 61% 29.90 in 10.0 mi West 27.6 mph 40.3 mph N/A Thunderstorm Thunderstorm
4:53 PM 73.9 °F - 66.0 °F 76% 29.87 in 6.0 mi WNW 13.8 mph 21.9 mph 0.01 in Rain , Thunderstorm Light Thunderstorms and Rain
5:53 PM 75.0 °F - 69.1 °F 82% 29.88 in 10.0 mi NE 10.4 mph - 0.00 in   Partly Cloudy
6:07 PM 73.4 °F - 69.8 °F 88% 29.89 in 10.0 mi NNE 8.1 mph - N/A   Partly Cloudy
6:53 PM 75.9 °F - 70.0 °F 82% 29.89 in 10.0 mi Calm Calm - N/A   Clear
7:53 PM 73.9 °F - 71.1 °F 91% 29.90 in 10.0 mi SSW 3.5 mph - N/A   Clear
8:53 PM 73.0 °F - 72.0 °F 96% 29.90 in 10.0 mi Calm Calm - N/A   Clear
9:53 PM 73.0 °F - 71.1 °F 93% 29.92 in 10.0 mi ENE 3.5 mph - N/A   Clear
10:53 PM 72.0 °F - 71.1 °F 97% 29.92 in 10.0 mi Calm Calm - N/A   Partly Cloudy
11:53 PM 73.0 °F - 70.0 °F 90% 29.93 in 10.0 mi Calm Calm - N/A   Scattered Clouds